Tracking 29511 objects as of 17-Sep-2024
HD Live streaming from Space Station
objects crossing your sky now

STARLINK-2121

Track STARLINK-2121 now!
10-day predictions
STARLINK-2121 is classified as:


NORAD ID: 47399
Int'l Code: 2021-005BC
Perigee: 553.4 km
Apogee: 555.2 km
Inclination: 53.1 °
Period: 95.6 minutes
Semi major axis: 6925 km
RCS: Unknown
Launch date: January 20, 2021
Source: United States (US)
Launch site: AIR FORCE EASTERN TEST RANGE (AFETR)
Your satellite tracking list
Your tracking list is empty




NASA's NSSDC Master Catalog

Two Line Element Set (TLE):
1 47399U 21005BC  24260.41937153  .00012953  00000-0  88647-3 0  9993
2 47399  53.0550 302.7391 0001295  79.3032 280.8102 15.06415980202035
Source of the keplerian elements: AFSPC